Погода в Газопроводе

Россия / Калужская область     54°26′21″N   35°35′17″E
темп.,
°C
ветер,
м/с
пор.,
м/с
влажн.,
%
обл.,
%
осадки,
мм/ч
давл.,
гПа
погр.,
м
11 апреля, вс
вс1100:00+3ююз49710 0.0 1026149
03:00+2ююз39760 0.0 1027142
06:00+2юз37794 0.0 1027101
09:00+7ююз35611 0.0 1029263
12:00+12ююз34480 0.0 1029758
15:00+14ююз33420 0.0 10291220
18:00+14ююв22510 0.0 102949
21:00+9юв22610 0.0 103113
12 апреля, пн
пн1200:00+7вюв22680 0.0 103119
03:00+6вюв337382 0.0 103232
06:00+5в3880100 0.0 1032131
09:00+8в61361100 0.0 1031548
12:00+11в71047100 0.0 1029725
15:00+13вюв6865100 0.0 1028824
18:00+12в4974100 0.0 1027589
21:00+9в41191100 0.0 1026233
13 апреля, вт
вт1300:00+8в3794100 0.0 1025137
03:00+8вюв4991100 0.0 1024159
06:00+7ююв3888100 0.0 1024127
09:00+12ююв4771100 0.0 1024260
12:00+17ююв5756100 0.0 1023646
15:00+18ююв6847100 0.0 10221318
18:00+17ююв595338 0.0 1021311
21:00+12юв477099 0.0 1022105
14 апреля, ср
ср1400:00+10юв411725 0.0 1021193
03:00+9ююв497979 0.0 1021141
06:00+10ююв497895 0.0 1020178
09:00+13ююв486796 0.0 1020341
12:00+17ююв575397 0.0 10191185
15:00+18ююв5748100 0.0 10181762
18:00+16юв3655100 0.0 1017156
21:00+12юв3665100 0.0 101798
15 апреля, чт
чт1500:00+10ююз2281100 0.0 101620
03:00+10зюз2485100 0.0 101770
06:00+10юв2280100 0.0 101623
09:00+12ююв356991 0.0 1016449
12:00+15ююз34566 0.0 10161236
15:00+16ю2351100 0.3 10151417
18:00+16в115783 0.1 101458
21:00+11в117470 0.3 101510